KCVG Airport Diagram

We have created a template for each of the higher traffic airports in the vZID airspace. They include KCMH, KCRW, KCVG, KDAY, KIND, KLEX and KSDF. You wil find usefull information including the airport diagram, weather, and specific airport procedures.

KCVG Weather

[Source: ADDS]
METAR
KCVG 261552Z 00000KT 10SM FEW250 27/19 A3015 RMK AO2 SLP201 T02670189 =
TAF
KCVG 261459Z 2615/2718 17005KT P6SM FEW250 FM270400 17003KT P6SM SCT050 BKN250 FM271100 18005KT P6SM VCSH SCT050 BKN150 FM271400 21005KT 5SM -SHRA BR BKN045 OVC100 =

KCVG Operations

Calm Wind Configuration is Landing runways 36C and 36R, departing runway 27.

You can expect  this configuration up to and including a 10 knot tailwind.

The Center runway is the old 18R/36L in the default scenery. Additionally, runway 9/27 was lengthened to 12,000 feet when the west runway (18R/36L) was added.

New Scenery is available at FlightSim.com.

On initial contact, arriving aircraft should notify the the controller which scenery they have.

 

JSN Epic template designed by JoomlaShine.com